Weather History for Patuxent River, MD

Change the Weather History Date:

Sunday, March 16, 2014

  Actual Average Record
Temperature  
Mean Temperature 37 °F -  
Max Temperature 44 °F 52 °F 73 °F (2002)
Min Temperature 30 °F 35 °F 24 °F (1979)
Degree Days  
Heating Degree Days 28    
Moisture  
Dew Point 27 °F    
Average Humidity 71    
Maximum Humidity 93    
Minimum Humidity 41    
Precipitation  
Precipitation 0.16 in - - ()
Sea Level Pressure  
Sea Level Pressure 30.09 in    
Wind  
Wind Speed 8 mph (NNE)    
Max Wind Speed 22 mph    
Max Gust Speed 28 mph    
Visibility 6 miles    
Events Fog , Snow    
Averages and records for this station are not official NWS values.
T = Trace of Precipitation, MM = Missing Value Source: NWS Daily Summary

Daily Weather History Graph

Daily Weather History Graph

Search for Another Location

Airport:

Trip Planner

Search our weather history database for the weather conditions in past years. The results will help you decide how hot, cold, wet, or windy it might be!

Date:

Astronomy

Mar. 16, 2014 Rise Set
Actual Time 7:15 AM EDT 7:13 PM EDT
Civil Twilight 6:49 AM EDT 7:40 PM EDT
Nautical Twilight 6:18 AM EDT 8:10 PM EDT
Astronomical Twilight 5:47 AM EDT 8:41 PM EDT
Moon 7:28 PM EDT (3/16) 6:57 AM EDT (3/16)
Length of Visible Light 12h 51m
Length of Day
11h 58m
Full, 100% of the Moon is Illuminated
Mar 16
Full
Mar 16
Full
Mar 23
Last Quarter
Mar 30
New
Apr 7
First Quarter

Hourly Weather History & Observations

Time (EDT) Temp. Windchill Dew Point Humidity Pressure Visibility Wind Dir Wind Speed Gust Speed Precip Events Conditions
12:52 AM 41.0 °F - 26.1 °F 55% 30.06 in 10.0 mi Calm Calm - N/A   Clear
1:52 AM 37.0 °F - 26.1 °F 65% 30.07 in 10.0 mi Calm Calm - N/A   Clear
2:52 AM 35.1 °F - 26.1 °F 70% 30.09 in 10.0 mi Calm Calm - N/A   Clear
3:52 AM 34.0 °F - 26.1 °F 73% 30.09 in 10.0 mi Calm Calm - N/A   Clear
4:52 AM 37.9 °F - 27.0 °F 65% 30.10 in 10.0 mi Calm Calm - N/A   Clear
5:52 AM 39.0 °F 34.0 °F 27.0 °F 62% 30.11 in 10.0 mi NE 6.9 mph - N/A   Clear
6:00 AM 37.9 °F 33.5 °F 27.0 °F 65% 30.11 in 10.0 mi NE 5.8 mph - N/A   Partly Cloudy
6:52 AM 39.0 °F 34.8 °F 28.0 °F 65% 30.14 in 10.0 mi North 5.8 mph - N/A   Scattered Clouds
7:52 AM 39.0 °F 35.7 °F 30.0 °F 70% 30.16 in 10.0 mi NNE 4.6 mph - N/A   Scattered Clouds
8:52 AM 42.1 °F 35.7 °F 28.9 °F 60% 30.16 in 10.0 mi NNE 11.5 mph - N/A   Mostly Cloudy
9:52 AM 43.0 °F 35.4 °F 27.0 °F 53% 30.18 in 10.0 mi NNE 16.1 mph - N/A   Mostly Cloudy
10:52 AM 44.1 °F 37.7 °F 24.1 °F 45% 30.18 in 10.0 mi North 12.7 mph - N/A   Overcast
11:52 AM 43.0 °F 37.2 °F 21.9 °F 43% 30.17 in 10.0 mi NNE 10.4 mph - N/A   Overcast
12:52 PM 44.1 °F 38.6 °F 21.9 °F 42% 30.18 in 10.0 mi North 10.4 mph - N/A   Overcast
1:52 PM 43.0 °F 37.2 °F 21.9 °F 43% 30.16 in 10.0 mi North 10.4 mph - N/A   Overcast
2:52 PM 42.1 °F 35.2 °F 21.0 °F 43% 30.15 in 10.0 mi North 12.7 mph - N/A   Overcast
3:52 PM 42.1 °F 34.9 °F 21.0 °F 43% 30.12 in 10.0 mi North 13.8 mph - N/A   Overcast
4:52 PM 42.1 °F 36.6 °F 19.9 °F 41% 30.13 in 10.0 mi North 9.2 mph - N/A   Overcast
5:52 PM 41.0 °F 33.9 °F 21.0 °F 45% 30.11 in 10.0 mi North 12.7 mph - N/A   Overcast
6:52 PM 39.9 °F 32.1 °F 23.0 °F 51% 30.10 in 10.0 mi NNE 13.8 mph - N/A   Overcast
7:52 PM 37.0 °F 27.7 °F 24.1 °F 59% 30.09 in 8.0 mi ENE 16.1 mph 25.3 mph 0.00 in Snow Light Snow
8:52 PM 33.1 °F 20.9 °F 27.0 °F 78% 30.07 in 3.0 mi NNE 21.9 mph 27.6 mph 0.00 in Snow Light Snow
8:58 PM 32.0 °F 19.5 °F 28.0 °F 85% 30.06 in 1.8 mi NNE 21.9 mph - 0.00 in Snow Light Snow
9:09 PM 32.0 °F 19.8 °F 28.0 °F 85% 30.06 in 2.0 mi NNE 20.7 mph 27.6 mph 0.01 in Snow Light Snow
9:25 PM 32.0 °F 21.6 °F 28.9 °F 88% 30.06 in 1.5 mi NNE 15.0 mph - 0.03 in Snow Light Snow
9:28 PM 32.0 °F 20.8 °F 28.9 °F 88% 30.06 in 1.5 mi NNE 17.3 mph - 0.03 in Snow Light Snow
9:37 PM 32.0 °F 21.2 °F 28.9 °F 88% 30.06 in 1.2 mi NNE 16.1 mph 24.2 mph 0.04 in Snow Light Snow
9:52 PM 32.0 °F 21.2 °F 28.9 °F 88% 30.07 in 0.8 mi NNE 16.1 mph - 0.06 in Snow Light Snow
9:59 PM 32.0 °F 20.5 °F 28.9 °F 88% 30.06 in 0.8 mi NE 18.4 mph 23.0 mph 0.01 in Snow Light Snow
10:14 PM 32.0 °F 22.1 °F 28.9 °F 88% 30.06 in 0.5 mi NE 13.8 mph 24.2 mph 0.03 in Fog , Snow Snow
10:28 PM 30.9 °F 20.2 °F 28.9 °F 92% 30.06 in 0.8 mi NE 15.0 mph - 0.04 in Snow Light Snow
10:43 PM 30.9 °F 21.2 °F 28.9 °F 92% 30.06 in 0.8 mi NE 12.7 mph - 0.06 in Snow Light Snow
10:52 PM 30.9 °F 19.8 °F 28.9 °F 92% 30.06 in 0.8 mi NE 16.1 mph - 0.07 in Snow Light Snow
11:06 PM 30.9 °F 20.2 °F 28.9 °F 92% 30.05 in 1.0 mi NE 15.0 mph - 0.01 in Snow Light Snow
11:17 PM 30.9 °F 20.2 °F 28.9 °F 92% 30.05 in 1.2 mi NE 15.0 mph - 0.02 in Snow Light Snow
11:25 PM 30.9 °F 20.2 °F 28.9 °F 92% 30.05 in 1.8 mi NE 15.0 mph - 0.02 in Snow Light Snow
11:42 PM 30.9 °F 20.2 °F 28.9 °F 92% 30.04 in 1.5 mi NNE 15.0 mph - 0.02 in Snow Light Snow
11:49 PM 30.2 °F 19.8 °F 28.4 °F 93% 30.04 in 1.8 mi NNE 13.8 mph - 0.03 in Snow Light Snow
11:52 PM 30.9 °F 20.2 °F 28.0 °F 89% 30.04 in 1.5 mi NNE 15.0 mph - 0.03 in Snow Light Snow
11:59 PM 30.9 °F 19.4 °F 28.0 °F 89% 30.03 in 1.5 mi NNE 17.3 mph - 0.00 in Snow Light Snow